Regional Weather Roundup
Issued by NWS Cleveland, OH

Home | Current Version | Previous Version | Text Only | Print | Product List | Glossary Off
Versions: 1 2 3 4 5 6 7 8 9 10 11 12 13 14 15 16 17 18 19 20 21 22 23 24 25 26 27 28 29 30 31 32 33 34 35 36 37 38 39 40 41 42 43 44 45 46 47 48 49 50

000
ASUS41 KCLE 231410
RWRCLE
OHIO REGIONAL WEATHER ROUNDUP
NATIONAL WEATHER SERVICE CLEVELAND, OH
1000 AM EDT SAT MAY 23 2015

NOTE: "FAIR" INDICATES FEW OR NO CLOUDS BELOW 12,000 FEET WITH NO
SIGNIFICANT WEATHER AND/OR OBSTRUCTIONS TO VISIBILITY.

OHZ001>008-015>018-024>027-034-035-043-044-231500-
   NORTHWEST OHIO

CITY           SKY/WX    TMP DP  RH WIND       PRES   REMARKS
DEFIANCE       SUNNY     63  39  41 SE5       30.40S
FINDLAY        SUNNY     64  39  39 SE10      30.39S
TOLEDO EXPRESS SUNNY     62  38  40 SE5       30.40S
TOLEDO EXEC    SUNNY     63  38  39 S6        30.42S
LIMA           SUNNY     64  40  41 S7        30.40R
$$

OHZ009>014-019>023-028>033-038-089-231500-
   NORTHEAST OHIO

CITY           SKY/WX    TMP DP  RH WIND       PRES   REMARKS
CLE-HOPKINS    SUNNY     60  36  40 SW10      30.45R
CLE-LAKEFRONT  SUNNY     61  34  36 S9        30.42S
CUY CO. ARPT   SUNNY     61  34  36 SW14      30.44S
LORAIN-ELYRIA  SUNNY     60  38  43 SW8       30.43S
ASHTABULA      SUNNY     55  29  36 S9        30.46R
AKRON-CANTON   SUNNY     60  29  30 SW7       30.44S
WOOSTER        SUNNY     58  37  45 S6        30.44S
MANSFIELD      SUNNY     61  36  39 SE6       30.42S
YOUNGSTOWN     MOSUNNY   56  28  34 S9        30.45R
$$

OHZ042-051>053-060>062-070>072-077>081-231500-
  SOUTHWEST OHIO

CITY           SKY/WX    TMP DP  RH WIND       PRES   REMARKS
CINC-COVINGTON PTSUNNY   65  51  60 SE6       30.39S
CINC-LUNKEN    PTSUNNY   61  52  72 CALM      30.41R
HAMILTON       CLOUDY    64  50  60 CALM      30.41R
DAYTON         PTSUNNY   63  45  51 SE6       30.41R
WRIGHT-PAT AFB MOSUNNY   64  43  46 SE3       30.40S
DAYTON GENERAL PTSUNNY   64  48  56 SE3       30.40R
WILMINGTON     MOSUNNY   65  44  46 S6        30.40R
$$

OHZ036-037-039>041-045>050-054>059-063>069-073>076-082>088-231500-
  CENTRAL AND SOUTHEAST OHIO

CITY           SKY/WX    TMP DP  RH WIND       PRES   REMARKS
COLUMBUS       MOSUNNY   62  37  39 SE7       30.41S
OSU AIRPORT    SUNNY     62  37  39 SE8       30.42R
BOLTON FIELD   NOT AVBL
RICKENBACK AFB SUNNY     62  40  44 SE8       30.41S
NEWARK         SUNNY     63  38  39 E6        30.42S
MARION         SUNNY     62  37  39 S10       30.42R
LANCASTER      SUNNY     63  39  41 SE9       30.42S
ZANESVILLE     SUNNY     60  39  45 SE5       30.43S
NEW PHILLY     SUNNY     58  37  45 E6        30.45S
$$


USA.gov is the U.S. government's official web portal to all federal, state and local government web resources and services.